AAL430 KMYR-KFLL

Flight info

Callsign AAL430
Flight time 1h 22m
Altitude 38000
Route CHS CAKET Q97 PRMUS CUUDA3
Aircraft MD11/H-SDE1E2E3FGHIJ2J3J4J5M1RWXY/LB1D1

Departure

Time 2026-04-15 03:56
Airport Myrtle Beach International Airport (KMYR)

Arrival

Time 2026-04-15 05:19
Airport Fort Lauderdale Hollywood International Airport (KFLL)
Time Latitude Longitude Altitude Speed Heading
2026-04-15 03:36 33.68168 -78.92386 40 ft 0 kts 77°
2026-04-15 03:45 33.68164 -78.92404 40 ft 2 kts 76°
2026-04-15 03:46 33.68160 -78.92423 40 ft 2 kts 76°
2026-04-15 03:46 33.68156 -78.92442 39 ft 2 kts 74°
2026-04-15 03:46 33.68151 -78.92461 40 ft 2 kts 68°
2026-04-15 03:46 33.68145 -78.92479 38 ft 2 kts 51°
2026-04-15 03:47 33.68136 -78.92490 37 ft 1 kts 38°
2026-04-15 03:47 33.68135 -78.92491 36 ft 0 kts 38°
2026-04-15 03:49 33.68136 -78.92490 37 ft 3 kts 37°
2026-04-15 03:50 33.68196 -78.92487 40 ft 13 kts 339°
2026-04-15 03:50 33.68269 -78.92548 40 ft 12 kts 331°
2026-04-15 03:50 33.68345 -78.92576 40 ft 11 kts 348°
2026-04-15 03:50 33.68420 -78.92594 40 ft 11 kts 348°
2026-04-15 03:51 33.68492 -78.92612 40 ft 10 kts 348°
2026-04-15 03:51 33.68586 -78.92635 40 ft 16 kts 348°
2026-04-15 03:51 33.68667 -78.92670 40 ft 10 kts 317°
2026-04-15 03:51 33.68668 -78.92730 38 ft 7 kts 241°
2026-04-15 03:52 33.68667 -78.92791 40 ft 9 kts 294°
2026-04-15 03:52 33.68724 -78.92820 40 ft 11 kts 348°
2026-04-15 03:52 33.68825 -78.92846 40 ft 20 kts 348°
2026-04-15 03:52 33.68948 -78.92863 40 ft 15 kts
2026-04-15 03:53 33.69047 -78.92864 40 ft 14 kts 349°
2026-04-15 03:53 33.69138 -78.92886 40 ft 13 kts 349°
2026-04-15 03:53 33.69224 -78.92906 40 ft 13 kts 348°
2026-04-15 03:53 33.69270 -78.92959 39 ft 7 kts 278°
2026-04-15 03:54 33.69263 -78.93015 40 ft 6 kts 258°
2026-04-15 03:54 33.69253 -78.93071 40 ft 8 kts 258°
2026-04-15 03:54 33.69237 -78.93122 41 ft 5 kts 234°
2026-04-15 03:55 33.69175 -78.93132 41 ft 8 kts 168°
2026-04-15 03:55 33.69164 -78.93129 41 ft 0 kts 168°
2026-04-15 03:56 33.69154 -78.93126 42 ft 11 kts 168°
2026-04-15 03:56 33.68731 -78.93021 40 ft 116 kts 168°
2026-04-15 03:56 33.67695 -78.92754 483 ft 161 kts 169°
2026-04-15 03:56 33.66593 -78.92463 1827 ft 164 kts 167°
2026-04-15 03:57 33.65455 -78.92142 2856 ft 170 kts 167°
2026-04-15 03:57 33.64275 -78.91985 3792 ft 173 kts 191°
2026-04-15 03:57 33.63237 -78.92662 4724 ft 173 kts 227°
2026-04-15 03:57 33.62468 -78.93794 5608 ft 177 kts 233°
2026-04-15 03:58 33.61719 -78.94977 6460 ft 180 kts 233°
2026-04-15 03:58 33.60950 -78.96184 7260 ft 190 kts 233°
2026-04-15 03:58 33.60072 -78.97557 7462 ft 230 kts 233°
2026-04-15 03:58 33.59001 -78.99222 7681 ft 270 kts 232°
2026-04-15 03:59 33.57836 -79.01024 8708 ft 276 kts 232°
2026-04-15 03:59 33.56648 -79.02854 9783 ft 281 kts 232°
2026-04-15 03:59 33.55410 -79.04758 10386 ft 306 kts 232°
2026-04-15 03:59 33.54027 -79.06882 10528 ft 340 kts 232°
2026-04-15 04:00 33.52528 -79.09178 11075 ft 354 kts 232°
2026-04-15 04:00 33.50998 -79.11520 11943 ft 359 kts 232°
2026-04-15 04:00 33.49447 -79.13890 12788 ft 364 kts 232°
2026-04-15 04:00 33.47877 -79.16287 13612 ft 368 kts 232°
2026-04-15 04:01 33.46282 -79.18719 14407 ft 373 kts 232°
2026-04-15 04:01 33.44672 -79.21174 15177 ft 377 kts 232°
2026-04-15 04:01 33.43041 -79.23660 15946 ft 381 kts 232°
2026-04-15 04:01 33.41392 -79.26170 16696 ft 386 kts 232°
2026-04-15 04:02 33.39722 -79.28711 17439 ft 390 kts 232°
2026-04-15 04:02 33.38036 -79.31274 18144 ft 394 kts 232°
2026-04-15 04:02 33.36331 -79.33865 18839 ft 398 kts 232°
2026-04-15 04:02 33.34628 -79.36450 19495 ft 402 kts 232°
2026-04-15 04:03 33.32883 -79.39097 20136 ft 407 kts 232°
2026-04-15 04:03 33.31123 -79.41765 20758 ft 410 kts 232°
2026-04-15 04:03 33.29343 -79.44462 21376 ft 414 kts 232°
2026-04-15 04:03 33.27546 -79.47182 21993 ft 418 kts 232°
2026-04-15 04:04 33.25735 -79.49921 22596 ft 422 kts 232°
2026-04-15 04:04 33.23904 -79.52689 23202 ft 426 kts 232°
2026-04-15 04:04 33.22057 -79.55479 23793 ft 430 kts 232°
2026-04-15 04:04 33.20194 -79.58291 24396 ft 434 kts 232°
2026-04-15 04:05 33.18313 -79.61127 24980 ft 438 kts 232°
2026-04-15 04:05 33.16414 -79.63989 25569 ft 442 kts 232°
2026-04-15 04:05 33.14498 -79.66875 26139 ft 446 kts 232°
2026-04-15 04:05 33.12563 -79.69783 26702 ft 449 kts 231°
2026-04-15 04:06 33.10632 -79.72670 27253 ft 453 kts 231°
2026-04-15 04:06 33.08654 -79.75620 27789 ft 457 kts 231°
2026-04-15 04:06 33.06664 -79.78592 28332 ft 461 kts 231°
2026-04-15 04:06 33.04657 -79.81591 28857 ft 465 kts 231°
2026-04-15 04:07 33.02637 -79.84614 29370 ft 468 kts 231°
2026-04-15 04:07 33.00597 -79.87667 29867 ft 472 kts 231°
2026-04-15 04:07 32.98546 -79.90735 30228 ft 475 kts 231°
2026-04-15 04:07 32.96486 -79.93814 30590 ft 475 kts 231°
2026-04-15 04:08 32.94427 -79.96890 30974 ft 475 kts 231°
2026-04-15 04:08 32.92369 -79.99957 31351 ft 474 kts 231°
2026-04-15 04:08 32.90158 -80.02864 31687 ft 473 kts 223°
2026-04-15 04:08 32.87557 -80.05249 32057 ft 473 kts 212°
2026-04-15 04:09 32.84701 -80.07170 32398 ft 472 kts 207°
2026-04-15 04:09 32.81745 -80.08889 32714 ft 472 kts 205°
2026-04-15 04:09 32.78780 -80.10561 33053 ft 471 kts 206°
2026-04-15 04:09 32.75827 -80.12258 33367 ft 470 kts 206°
2026-04-15 04:10 32.72900 -80.13991 33670 ft 470 kts 207°
2026-04-15 04:10 32.70027 -80.15733 33965 ft 469 kts 207°
2026-04-15 04:10 32.67131 -80.17514 34254 ft 468 kts 207°
2026-04-15 04:10 32.64242 -80.19303 34529 ft 468 kts 208°
2026-04-15 04:11 32.61361 -80.21090 34793 ft 467 kts 208°
2026-04-15 04:11 32.58483 -80.22874 35058 ft 467 kts 208°
2026-04-15 04:11 32.55606 -80.24655 35313 ft 466 kts 208°
2026-04-15 04:11 32.52732 -80.26433 35556 ft 466 kts 208°
2026-04-15 04:12 32.49866 -80.28229 35799 ft 465 kts 208°
2026-04-15 04:12 32.47018 -80.30033 36027 ft 465 kts 208°
2026-04-15 04:12 32.44167 -80.31848 36247 ft 464 kts 208°
2026-04-15 04:12 32.41323 -80.33661 36462 ft 464 kts 208°
2026-04-15 04:13 32.38480 -80.35472 36679 ft 464 kts 208°
2026-04-15 04:13 32.35635 -80.37282 36865 ft 464 kts 208°
2026-04-15 04:13 32.32793 -80.39087 37060 ft 464 kts 208°
2026-04-15 04:13 32.29946 -80.40895 37247 ft 464 kts 208°
2026-04-15 04:14 32.27100 -80.42699 37426 ft 464 kts 208°
2026-04-15 04:14 32.24255 -80.44501 37597 ft 464 kts 208°
2026-04-15 04:14 32.21413 -80.46301 37785 ft 464 kts 208°
2026-04-15 04:14 32.18564 -80.48103 37949 ft 464 kts 208°
2026-04-15 04:15 32.15712 -80.49906 37993 ft 467 kts 208°
2026-04-15 04:15 32.09960 -80.53538 38000 ft 469 kts 208°
2026-04-15 04:16 32.04235 -80.57148 38000 ft 469 kts 208°
2026-04-15 04:16 31.98476 -80.60774 38000 ft 469 kts 208°
2026-04-15 04:17 31.92712 -80.64399 38000 ft 469 kts 208°
2026-04-15 04:17 31.86950 -80.68016 38000 ft 469 kts 208°
2026-04-15 04:18 31.81186 -80.71631 38000 ft 469 kts 208°
2026-04-15 04:18 31.75414 -80.75234 38000 ft 469 kts 208°
2026-04-15 04:19 31.69645 -80.78827 38000 ft 469 kts 208°
2026-04-15 04:19 31.63872 -80.82427 38000 ft 469 kts 208°
2026-04-15 04:20 31.58101 -80.86025 38000 ft 469 kts 208°
2026-04-15 04:20 31.52332 -80.89616 38000 ft 469 kts 208°
2026-04-15 04:21 31.46597 -80.93182 38000 ft 469 kts 208°
2026-04-15 04:21 31.40826 -80.96764 38000 ft 469 kts 208°
2026-04-15 04:22 31.35053 -81.00343 38000 ft 469 kts 208°
2026-04-15 04:22 31.29276 -81.03915 38000 ft 469 kts 207°
2026-04-15 04:23 31.23154 -81.06473 37999 ft 469 kts 189°
2026-04-15 04:23 31.16671 -81.06777 38001 ft 470 kts 179°
2026-04-15 04:24 31.10126 -81.06570 38000 ft 470 kts 179°
2026-04-15 04:24 31.03579 -81.06552 38000 ft 470 kts 181°
2026-04-15 04:25 30.97028 -81.06667 38000 ft 470 kts 181°
2026-04-15 04:25 30.90480 -81.06812 38000 ft 470 kts 181°
2026-04-15 04:26 30.83925 -81.06954 38000 ft 470 kts 181°
2026-04-15 04:26 30.77383 -81.07090 38000 ft 470 kts 181°
2026-04-15 04:27 30.70840 -81.07225 38000 ft 470 kts 181°
2026-04-15 04:27 30.64292 -81.07361 38000 ft 470 kts 181°
2026-04-15 04:28 30.57798 -81.07654 38000 ft 470 kts 183°
2026-04-15 04:28 30.51260 -81.08063 38000 ft 470 kts 183°
2026-04-15 04:29 30.44726 -81.08476 38000 ft 470 kts 183°
2026-04-15 04:29 30.38184 -81.08876 38000 ft 470 kts 183°
2026-04-15 04:30 30.31646 -81.09271 38000 ft 470 kts 183°
2026-04-15 04:30 30.25150 -81.09662 38000 ft 470 kts 183°
2026-04-15 04:31 30.18605 -81.10056 38000 ft 470 kts 183°
2026-04-15 04:31 30.12070 -81.10449 38000 ft 470 kts 183°
2026-04-15 04:32 30.05532 -81.10841 38000 ft 470 kts 183°
2026-04-15 04:32 29.98992 -81.11233 38000 ft 470 kts 183°
2026-04-15 04:33 29.92461 -81.11624 38000 ft 470 kts 183°
2026-04-15 04:33 29.85924 -81.12015 38000 ft 470 kts 183°
2026-04-15 04:34 29.79425 -81.11530 37999 ft 470 kts 166°
2026-04-15 04:34 29.73334 -81.08798 38001 ft 471 kts 154°
2026-04-15 04:35 29.67432 -81.05516 38000 ft 471 kts 155°
2026-04-15 04:35 29.61502 -81.02421 38000 ft 471 kts 156°
2026-04-15 04:36 29.55477 -80.99431 38000 ft 471 kts 157°
2026-04-15 04:36 29.49445 -80.96479 38000 ft 471 kts 157°
2026-04-15 04:37 29.43414 -80.93528 38000 ft 471 kts 157°
2026-04-15 04:37 29.37387 -80.90578 38000 ft 471 kts 157°
2026-04-15 04:38 29.32370 -80.88123 38000 ft 471 kts 157°
2026-04-15 04:38 29.26339 -80.85176 38000 ft 471 kts 157°
2026-04-15 04:39 29.20304 -80.82231 38000 ft 471 kts 157°
2026-04-15 04:39 29.14266 -80.79288 38000 ft 471 kts 157°
2026-04-15 04:40 29.08232 -80.76351 38000 ft 471 kts 157°
2026-04-15 04:40 29.02201 -80.73421 38000 ft 471 kts 157°
2026-04-15 04:41 28.96194 -80.70546 38000 ft 471 kts 158°
2026-04-15 04:41 28.90098 -80.67791 38000 ft 471 kts 159°
2026-04-15 04:42 28.83989 -80.65075 38000 ft 471 kts 159°
2026-04-15 04:42 28.77880 -80.62354 38000 ft 471 kts 159°
2026-04-15 04:43 28.71777 -80.59630 38000 ft 471 kts 159°
2026-04-15 04:43 28.65673 -80.56908 38000 ft 471 kts 159°
2026-04-15 04:44 28.59568 -80.54188 38000 ft 471 kts 159°
2026-04-15 04:44 28.53461 -80.51471 38000 ft 471 kts 159°
2026-04-15 04:45 28.47356 -80.48759 38000 ft 471 kts 159°
2026-04-15 04:45 28.41249 -80.46049 38000 ft 471 kts 159°
2026-04-15 04:46 28.35134 -80.43339 38000 ft 471 kts 159°
2026-04-15 04:46 28.26002 -80.39298 38000 ft 471 kts 159°
2026-04-15 04:47 28.19895 -80.36601 38000 ft 471 kts 159°
2026-04-15 04:47 28.13784 -80.33913 38000 ft 471 kts 159°
2026-04-15 04:48 28.07650 -80.31289 38000 ft 471 kts 160°
2026-04-15 04:48 28.01453 -80.28848 38000 ft 471 kts 161°
2026-04-15 04:49 27.95289 -80.26461 38000 ft 471 kts 161°
2026-04-15 04:49 27.89092 -80.24053 37969 ft 468 kts 161°
2026-04-15 04:50 27.86045 -80.22865 37713 ft 459 kts 161°
2026-04-15 04:50 27.83030 -80.21689 37433 ft 458 kts 161°
2026-04-15 04:50 27.80017 -80.20515 36893 ft 458 kts 161°
2026-04-15 04:50 27.77011 -80.19344 36333 ft 456 kts 161°
2026-04-15 04:51 27.74013 -80.18176 35759 ft 456 kts 161°
2026-04-15 04:51 27.71004 -80.17006 35199 ft 457 kts 161°
2026-04-15 04:51 27.67990 -80.15834 34642 ft 458 kts 161°
2026-04-15 04:51 27.64974 -80.14662 34075 ft 459 kts 161°
2026-04-15 04:52 27.61951 -80.13475 33516 ft 461 kts 161°
2026-04-15 04:52 27.58933 -80.12251 32919 ft 462 kts 160°
2026-04-15 04:52 27.55913 -80.11005 32313 ft 463 kts 160°
2026-04-15 04:52 27.52924 -80.09762 31710 ft 464 kts 160°
2026-04-15 04:53 27.49893 -80.08500 31105 ft 465 kts 160°
2026-04-15 04:53 27.46853 -80.07236 30494 ft 467 kts 160°
2026-04-15 04:53 27.43799 -80.05969 29878 ft 468 kts 160°
2026-04-15 04:53 27.40739 -80.04706 29271 ft 469 kts 160°
2026-04-15 04:54 27.37639 -80.03555 28709 ft 470 kts 163°
2026-04-15 04:54 27.34490 -80.02531 28368 ft 469 kts 165°
2026-04-15 04:54 27.31359 -80.01575 28213 ft 455 kts 165°
2026-04-15 04:54 27.28381 -80.00683 28098 ft 433 kts 165°
2026-04-15 04:55 27.25497 -79.99788 27979 ft 427 kts 164°
2026-04-15 04:55 27.22666 -79.98825 27845 ft 425 kts 163°
2026-04-15 04:55 27.19849 -79.97822 27693 ft 423 kts 162°
2026-04-15 04:55 27.17037 -79.96803 27119 ft 423 kts 162°
2026-04-15 04:56 27.14260 -79.95791 26452 ft 417 kts 162°
2026-04-15 04:56 27.11514 -79.94793 25826 ft 413 kts 162°
2026-04-15 04:56 27.08822 -79.93817 25180 ft 409 kts 162°
2026-04-15 04:56 27.06140 -79.92809 24554 ft 405 kts 161°
2026-04-15 04:57 27.03497 -79.91764 23900 ft 398 kts 160°
2026-04-15 04:57 27.00915 -79.90721 23246 ft 390 kts 160°
2026-04-15 04:57 26.98392 -79.89696 22619 ft 382 kts 160°
2026-04-15 04:57 26.95910 -79.88688 22005 ft 378 kts 160°
2026-04-15 04:58 26.93445 -79.87690 21276 ft 374 kts 160°
2026-04-15 04:58 26.91014 -79.86707 20610 ft 369 kts 160°
2026-04-15 04:58 26.88612 -79.85738 19977 ft 365 kts 160°
2026-04-15 04:58 26.86228 -79.84777 19366 ft 362 kts 160°
2026-04-15 04:59 26.83874 -79.83829 18777 ft 358 kts 160°
2026-04-15 04:59 26.81539 -79.82889 18223 ft 355 kts 160°
2026-04-15 04:59 26.79225 -79.81956 17651 ft 353 kts 160°
2026-04-15 04:59 26.76929 -79.81029 17058 ft 349 kts 160°
2026-04-15 05:00 26.74654 -79.80110 16466 ft 346 kts 160°
2026-04-15 05:00 26.72395 -79.79212 15870 ft 342 kts 162°
2026-04-15 05:00 26.70081 -79.78691 15293 ft 337 kts 179°
2026-04-15 05:00 26.67781 -79.79027 14738 ft 331 kts 195°
2026-04-15 05:01 26.65607 -79.79823 14191 ft 327 kts 201°
2026-04-15 05:01 26.63522 -79.80722 13654 ft 323 kts 202°
2026-04-15 05:01 26.61439 -79.81638 13118 ft 320 kts 201°
2026-04-15 05:01 26.59377 -79.82531 12587 ft 317 kts 201°
2026-04-15 05:02 26.57327 -79.83403 12094 ft 313 kts 201°
2026-04-15 05:02 26.55316 -79.84275 11710 ft 309 kts 202°
2026-04-15 05:02 26.53336 -79.85195 11191 ft 308 kts 203°
2026-04-15 05:02 26.51367 -79.86130 10624 ft 307 kts 203°
2026-04-15 05:03 26.49414 -79.87059 10202 ft 301 kts 203°
2026-04-15 05:03 26.47532 -79.87954 9909 ft 289 kts 203°
2026-04-15 05:03 26.45700 -79.88822 9435 ft 285 kts 203°
2026-04-15 05:03 26.43878 -79.89685 8995 ft 283 kts 203°
2026-04-15 05:04 26.42079 -79.90536 8618 ft 278 kts 203°
2026-04-15 05:04 26.40303 -79.91375 8242 ft 276 kts 203°
2026-04-15 05:04 26.38547 -79.92219 7901 ft 274 kts 206°
2026-04-15 05:04 26.36862 -79.93197 7803 ft 273 kts 209°
2026-04-15 05:05 26.35211 -79.94242 7784 ft 273 kts 210°
2026-04-15 05:05 26.33564 -79.95302 7776 ft 273 kts 210°
2026-04-15 05:05 26.31922 -79.96363 7785 ft 273 kts 210°
2026-04-15 05:05 26.30276 -79.97426 7776 ft 273 kts 210°
2026-04-15 05:06 26.28631 -79.98488 7776 ft 273 kts 210°
2026-04-15 05:06 26.26989 -79.99549 7775 ft 273 kts 210°
2026-04-15 05:06 26.25346 -80.00610 7781 ft 273 kts 210°
2026-04-15 05:06 26.23726 -80.01656 7783 ft 273 kts 210°
2026-04-15 05:07 26.22082 -80.02719 7783 ft 273 kts 210°
2026-04-15 05:07 26.20435 -80.03782 7777 ft 273 kts 210°
2026-04-15 05:07 26.18856 -80.04944 7773 ft 273 kts 221°
2026-04-15 05:07 26.17711 -80.06603 7773 ft 271 kts 244°
2026-04-15 05:08 26.16998 -80.08550 7783 ft 272 kts 251°
2026-04-15 05:08 26.16396 -80.10545 7781 ft 272 kts 252°
2026-04-15 05:08 26.15812 -80.12547 7778 ft 272 kts 252°
2026-04-15 05:08 26.15254 -80.14558 7775 ft 272 kts 257°
2026-04-15 05:09 26.15034 -80.16645 7757 ft 272 kts 268°
2026-04-15 05:09 26.15002 -80.18752 7694 ft 272 kts 270°
2026-04-15 05:09 26.15011 -80.20854 7632 ft 272 kts 270°
2026-04-15 05:09 26.15025 -80.22956 7512 ft 272 kts 270°
2026-04-15 05:10 26.15039 -80.25048 7146 ft 269 kts 270°
2026-04-15 05:10 26.15052 -80.27130 6729 ft 268 kts 270°
2026-04-15 05:10 26.15063 -80.29203 6310 ft 266 kts 270°
2026-04-15 05:10 26.15073 -80.31258 5897 ft 265 kts 270°
2026-04-15 05:11 26.15083 -80.33301 5483 ft 263 kts 270°
2026-04-15 05:11 26.15067 -80.35334 5072 ft 262 kts 269°
2026-04-15 05:11 26.15028 -80.37355 4665 ft 260 kts 269°
2026-04-15 05:11 26.14984 -80.39359 4262 ft 259 kts 268°
2026-04-15 05:12 26.14940 -80.41330 3885 ft 257 kts 268°
2026-04-15 05:12 26.14868 -80.43304 3506 ft 253 kts 262°
2026-04-15 05:12 26.14242 -80.45098 3124 ft 250 kts 234°
2026-04-15 05:12 26.12920 -80.46301 2838 ft 245 kts 203°
2026-04-15 05:13 26.11303 -80.46588 2783 ft 230 kts 177°
2026-04-15 05:13 26.09777 -80.46294 2767 ft 220 kts 158°
2026-04-15 05:13 26.08598 -80.45267 2769 ft 217 kts 124°
2026-04-15 05:13 26.08074 -80.43702 2791 ft 219 kts 100°
2026-04-15 05:14 26.07888 -80.42015 2800 ft 219 kts 94°
2026-04-15 05:14 26.07829 -80.40315 2794 ft 220 kts 91°
2026-04-15 05:14 26.07820 -80.38611 2784 ft 221 kts 90°
2026-04-15 05:14 26.07814 -80.36904 2781 ft 220 kts 90°
2026-04-15 05:15 26.07806 -80.35198 2782 ft 220 kts 90°
2026-04-15 05:15 26.07797 -80.33494 2778 ft 220 kts 90°
2026-04-15 05:15 26.07788 -80.31782 2690 ft 222 kts 90°
2026-04-15 05:15 26.07778 -80.30098 2391 ft 209 kts 90°
2026-04-15 05:16 26.07769 -80.28533 2126 ft 199 kts 90°
2026-04-15 05:16 26.07760 -80.26999 1861 ft 198 kts 90°
2026-04-15 05:16 26.07751 -80.25492 1616 ft 197 kts 90°
2026-04-15 05:16 26.07741 -80.23975 1347 ft 196 kts 90°
2026-04-15 05:17 26.07732 -80.22465 1099 ft 193 kts 90°
2026-04-15 05:17 26.07724 -80.21077 812 ft 164 kts 90°
2026-04-15 05:17 26.07716 -80.19872 585 ft 150 kts 90°
2026-04-15 05:17 26.07709 -80.18720 423 ft 148 kts 90°
2026-04-15 05:18 26.07702 -80.17577 241 ft 147 kts 90°
2026-04-15 05:18 26.07698 -80.16449 55 ft 141 kts 90°
2026-04-15 05:18 26.07691 -80.15488 26 ft 103 kts 90°
2026-04-15 05:18 26.07685 -80.14850 31 ft 64 kts 90°
2026-04-15 05:19 26.07678 -80.14514 32 ft 25 kts 102°
2026-04-15 05:19 26.07624 -80.14399 34 ft 12 kts 121°
2026-04-15 05:19 26.07580 -80.14317 33 ft 13 kts 120°
2026-04-15 05:19 26.07536 -80.14244 32 ft 9 kts 136°
2026-04-15 05:20 26.07507 -80.14228 31 ft 1 kts 165°
2026-04-15 05:20 26.07498 -80.14226 30 ft 1 kts 173°
2026-04-15 05:20 26.07470 -80.14251 31 ft 7 kts 232°
2026-04-15 05:20 26.07447 -80.14279 30 ft 4 kts 229°
2026-04-15 05:21 26.07439 -80.14283 30 ft 6 kts 209°
2026-04-15 05:21 26.07408 -80.14291 30 ft 7 kts 191°
2026-04-15 05:21 26.07398 -80.14295 30 ft 0 kts 199°